Station NFDF1 - 8720215 - Navy Fuel Depot, St Johns River, FL Image indicating link to RSS feed of recent meteorological observations for station NFDF1


Conditions at NFDF1 as of
(12:18 pm EDT)
1618 GMT on 09/06/2026:
     

Click on the graph icon in the table below to see a time series plot of the last five days of that observation.

5-day plot - Wind Direction Wind Direction (WDIR):ENE ( 60 deg true )
5-day plot - Wind Speed Wind Speed (WSPD): 1.9 kts
5-day plot - Wind Gust Wind Gust (GST): 4.1 kts
5-day plot - Atmospheric Pressure Atmospheric Pressure (PRES):29.88 in
5-day plot - Visibility Visibility (VIS): 5.9 nmi
5-day plot -  Wind Speed, Wind Gust and Atmospheric Pressure Combined plot of Wind Speed, Gust, and Air Pressure
NOS Water Level Observation Network Water Level
Previous observations
TIME
(EDT)
5-day plot - Wind Direction
WDIR
 
5-day plot - Wind Speed
WSPD
kts
5-day plot - Wind Gust
GST
kts
5-day plot - Wave Height
WVHT
ft
5-day plot - Dominant Wave Period
DPD
sec
5-day plot - Average Wave Period
APD
sec
5-day plot - Mean Wave Direction
MWD
 
5-day plot - Atmospheric Pressure
PRES
in
5-day plot - Pressure Tendency
PTDY
in
5-day plot - Air Temperature
ATMP
°F
5-day plot - Water Temperature
WTMP
°F
5-day plot - Dew Point
DEWP
°F
5-day plot - Salinity
SAL
psu
5-day plot - Visibility
VIS
nmi
5-day plot - Tide (above MLLW)
TIDE
ft
2026-09-06 12:12 pm SW 2.9 5.1----29.88----- 5.9-
2026-09-06 12:06 pm SW 1.9 4.1----29.89----- 5.9-
2026-09-06 12:00 pmWNW 1.9 6.0----29.89-0.01 90.7- 76.3- 5.9-
2026-09-06 11:54 am SW 4.1 7.0----29.89- 90.5- 76.6- 5.9-
2026-09-06 11:48 am SW 1.9 5.1----29.90- 89.8- 76.8- 5.9-
2026-09-06 11:42 am S 4.1 5.1----29.90- 88.7- 77.2- 5.9-
2026-09-06 11:36 am SW 5.1 7.0----29.90- 89.8- 77.2- 5.9-
2026-09-06 11:30 am S 1.9 8.0----29.90- 88.7- 77.0- 5.9-
2026-09-06 11:24 am N 4.1 7.0----29.90- 89.2- 77.0- 5.9-
2026-09-06 11:18 amWSW 1.0 4.1----29.90----- 5.9-
2026-09-06 11:12 am NE 1.9 4.1----29.90----- 5.9-
2026-09-06 11:06 am W 2.9 5.1----29.90----- 5.9-
2026-09-06 11:00 amWSW 1.9 5.1----29.90+0.00 88.0- 76.3- 5.9-
2026-09-06 10:54 am SW 2.9 5.1----29.90- 87.8- 76.8- 5.9-
2026-09-06 10:48 amSSE 1.9 2.9----29.90- 88.3- 77.4- 5.9-
2026-09-06 10:42 am SW 1.0 4.1----29.90- 87.6- 76.6- 5.9-
2026-09-06 10:36 am SW 1.9 4.1----29.90- 86.7- 77.0- 5.9-
2026-09-06 10:30 amWSW 1.9 5.1----29.90- 86.0- 77.4- 5.9-
2026-09-06 10:24 am W 1.9 2.9----29.89- 86.2- 77.4- 5.9-
2026-09-06 10:18 am SW 1.0 4.1----29.89----- 5.9-
2026-09-06 10:12 am W 1.9 4.1----29.89----- 5.9-
2026-09-06 10:06 am SW 1.0 4.1----29.89----- 5.9-
2026-09-06 10:00 amWSW 2.9 5.1----29.89+0.01 84.0- 76.6- 5.9-
2026-09-06 09:54 amWSW 1.9 2.9----29.89- 84.4- 77.5- 5.9-
2026-09-06 09:48 amWSW 1.9 5.1----29.89- 83.8- 76.8- 5.9-
2026-09-06 09:42 amSSW 2.9 6.0----29.90- 84.0- 76.8- 5.9-
2026-09-06 09:36 am SW 4.1 7.0----29.90- 84.6- 77.0- 5.9-
2026-09-06 09:30 am SW 4.1 6.0----29.90- 84.0- 76.8- 5.9-
2026-09-06 09:24 am SW 4.1 6.0----29.90- 83.8- 77.0- 5.9-
2026-09-06 09:18 am SW 2.9 7.0----29.90----- 5.9-
2026-09-06 09:12 amWSW 4.1 6.0----29.90----- 5.9-
2026-09-06 09:06 am SW 2.9 5.1----29.90----- 5.9-
2026-09-06 09:00 am SW 2.9 5.1----29.90+0.04 82.4- 76.8- 5.9-
2026-09-06 08:54 am SW 2.9 7.0----29.90- 81.7- 76.5- 5.9-
2026-09-06 08:48 am SW 2.9 5.1----29.90----- 5.9-
2026-09-06 08:42 am SW 2.9 7.0----29.90----- 5.9-
2026-09-06 08:36 amWSW 4.1 6.0----29.89----- 5.9-
2026-09-06 08:30 am SW 2.9 5.1----29.89- 79.5- 75.9- 5.9-
2026-09-06 08:24 amWSW 1.9 5.1----29.89- 79.5- 75.9- 5.9-
2026-09-06 08:18 amWSW 1.0 4.1----29.89----- 5.9-
2026-09-06 08:12 am SW 1.9 5.1----29.89----- 5.9-
2026-09-06 08:06 am SW 1.9 2.9----29.89----- 5.9-
2026-09-06 08:00 am- 0.0 1.9----29.90+0.03 78.4- 75.9- 5.9-
2026-09-06 07:54 amWSW 1.0 1.9----29.90- 78.3- 75.7- 5.9-
2026-09-06 07:48 am- 0.0 1.9----29.90----- 5.9-
2026-09-06 07:42 am- 0.0 2.9----29.90----- 5.9-
2026-09-06 07:36 am- 0.0 1.9----29.90----- 5.9-
2026-09-06 07:30 am- 0.0 1.0----29.89- 78.3- 75.6- 5.9-
2026-09-06 07:24 am- 0.0 1.9----29.89- 78.4- 75.6- 5.9-
2026-09-06 07:18 am W 1.0 1.9----29.89----- 5.9-
2026-09-06 07:12 am SW 1.9 2.9----29.89----- 5.9-
2026-09-06 07:06 am SW 2.9 5.1----29.88----- 5.9-
2026-09-06 07:00 am SW 2.9 6.0----29.88+0.02 78.8- 75.7- 5.9-
2026-09-06 06:54 am SW 4.1 7.0----29.87- 78.8- 75.7- 5.9-
2026-09-06 06:48 amWSW 1.9 2.9----29.87- 78.6- 75.7- 5.9-
2026-09-06 06:42 am SW 4.1 6.0----29.87- 79.0- 75.9- 5.9-
2026-09-06 06:36 am SW 4.1 7.0----29.87- 79.0- 75.7- 5.9-
2026-09-06 06:30 am SW 2.9 7.0----29.86- 78.8- 75.6- 5.9-
2026-09-06 06:24 am SW 2.9 6.0----29.86- 78.8- 75.6- 5.9-
2026-09-06 06:18 am SW 2.9 6.0----29.86----- 5.9-
2026-09-06 06:12 amWSW 2.9 8.0----29.86----- 5.9-
2026-09-06 06:06 am SW 2.9 6.0----29.86----- 5.9-
2026-09-06 06:00 am SW 5.1 6.0----29.86+0.00 79.0- 75.7- 5.9-
2026-09-06 05:54 am SW 4.1 7.0----29.86- 79.0- 75.7- 5.9-
2026-09-06 05:48 am SW 4.1 7.0----29.86- 79.0- 75.7- 5.9-
2026-09-06 05:42 am SW 4.1 6.0----29.86- 79.0- 75.7- 5.9-
2026-09-06 05:36 am SW 4.1 6.0----29.86- 79.0- 75.7- 5.9-
2026-09-06 05:30 amWSW 1.9 7.0----29.86- 79.2- 75.9- 5.9-
2026-09-06 05:24 amWSW 1.9 4.1----29.86- 79.0- 75.9- 5.9-
2026-09-06 05:18 amWSW 1.9 4.1----29.86----- 5.9-
2026-09-06 05:12 am SW 1.0 5.1----29.86----- 5.9-
2026-09-06 05:06 am SW 2.9 6.0----29.86----- 5.9-
2026-09-06 05:00 am SW 4.1 6.0----29.86+0.00 79.3- 75.9- 5.9-
2026-09-06 04:54 am SW 4.1 6.0----29.86- 79.5- 75.9- 5.9-
2026-09-06 04:48 am SW 2.9 5.1----29.86- 79.5- 76.1- 5.9-
2026-09-06 04:42 am SW 1.9 4.1----29.86- 79.5- 75.9- 5.9-
2026-09-06 04:36 am SW 2.9 5.1----29.86- 79.7- 75.9- 5.9-
2026-09-06 04:30 amWSW 1.0 6.0----29.86- 79.7- 75.9- 5.9-
2026-09-06 04:24 am SW 2.9 6.0----29.85- 79.9- 75.9- 5.9-
2026-09-06 04:18 am SW 2.9 5.1----29.85----- 5.9-
2026-09-06 04:12 am SW 4.1 7.0----29.85----- 5.9-
2026-09-06 04:06 am SW 4.1 5.1----29.85----- 5.9-
2026-09-06 04:00 am SW 2.9 6.0----29.85-0.02 80.2- 76.1- 5.9-
2026-09-06 03:54 am SW 1.9 7.0----29.86- 80.1- 75.7- 5.9-
2026-09-06 03:48 am SW 4.1 6.0----29.86- 80.1- 75.7- 5.9-
2026-09-06 03:42 amWSW 2.9 5.1----29.86- 79.9- 75.7- 5.9-
2026-09-06 03:36 am SW 1.9 5.1----29.86- 79.9- 75.7- 5.9-
2026-09-06 03:30 amWSW 1.0 2.9----29.86- 79.9- 75.7- 5.9-
2026-09-06 03:24 amWSW 2.9 6.0----29.86- 80.1- 75.6- 5.9-
2026-09-06 03:18 amWSW 4.1 6.0----29.86----- 5.9-
2026-09-06 03:12 amWSW 4.1 6.0----29.86----- 5.9-
2026-09-06 03:06 am SW 1.9 7.0----29.86----- 5.9-
2026-09-06 03:00 am SW 4.1 6.0----29.85-0.04 80.2- 75.6- 5.9-
2026-09-06 02:54 am SW 1.9 5.1----29.86- 80.2- 75.9- 5.9-
2026-09-06 02:48 am SW 4.1 6.0----29.86- 80.4- 75.9- 5.9-
2026-09-06 02:42 amWSW 2.9 8.0----29.86- 80.6- 75.9- 5.9-
2026-09-06 02:36 am SW 6.0 7.0----29.86- 80.8- 75.9- 5.9-
2026-09-06 02:30 amWSW 4.1 6.0----29.86- 80.6- 76.1- 5.9-
2026-09-06 02:24 amWSW 4.1 6.0----29.86- 80.8- 76.3- 5.9-
2026-09-06 02:18 am SW 2.9 5.1----29.87----- 5.9-
2026-09-06 02:12 am- 0.0 4.1----29.87----- 5.9-
2026-09-06 02:06 am- 0.0 2.9----29.87----- 5.9-
2026-09-06 02:00 amWSW 1.9 4.1----29.87-0.03 80.6- 76.5- 5.9-
2026-09-06 01:54 am W 1.9 4.1----29.87- 81.0- 76.6- 5.9-
2026-09-06 01:48 amWSW 1.9 6.0----29.87- 81.1- 76.6- 5.9-
2026-09-06 01:42 am SW 2.9 6.0----29.88- 81.3- 76.6- 5.9-
2026-09-06 01:36 amWSW 2.9 7.0----29.88- 81.5- 76.8- 5.9-
2026-09-06 01:30 amWSW 4.1 6.0----29.88- 81.5- 76.8- 5.9-
2026-09-06 01:24 amWSW 1.0 6.0----29.88- 81.5- 76.8- 5.9-
2026-09-06 01:18 am SW 4.1 6.0----29.88----- 5.9-
2026-09-06 01:12 am SW 4.1 8.0----29.88----- 5.9-
2026-09-06 01:06 am SW 5.1 8.0----29.88----- 5.9-
2026-09-06 01:00 am SW 5.1 7.0----29.88-0.02 82.0- 77.4- 5.9-
2026-09-06 12:54 am SW 5.1 8.0----29.88- 82.2- 77.7- 5.9-
2026-09-06 12:48 amSSW 6.0 8.0----29.88- 82.2- 77.9- 5.9-
2026-09-06 12:42 am SW 5.1 8.0----29.88- 82.2- 77.9- 5.9-
2026-09-06 12:36 amSSW 6.0 8.0----29.88- 82.6- 78.4- 5.9-
2026-09-06 12:30 amSSW 6.0 8.0----29.88- 82.6- 78.6- 5.9-
2026-09-06 12:24 amSSW 5.1 7.0----29.88- 82.4- 78.4- 5.9-
2026-09-06 12:18 am SW 2.9 6.0----29.88----- 5.9-
2026-09-06 12:12 am SW 4.1 8.0----29.89----- 5.9-
2026-09-06 12:06 amSSW 7.0 8.0----29.89----- 5.9-
2026-09-06 12:00 amSSW 6.0 8.0----29.89+0.01 82.8- 78.8- 5.9-
2026-09-05 11:54 pmSSW 5.1 7.0----29.89- 82.8- 79.0- 5.9-
2026-09-05 11:48 pmSSW 4.1 6.0----29.89- 82.8- 79.2- 5.9-
2026-09-05 11:42 pm SW 2.9 6.0----29.90- 82.6- 79.0- 5.9-
2026-09-05 11:36 pmSSW 5.1 6.0----29.90- 82.8- 79.3- 5.9-
2026-09-05 11:30 pm SW 4.1 8.0----29.90- 82.6- 79.2- 5.9-
2026-09-05 11:24 pm SW 5.1 8.0----29.89- 82.8- 79.3- 5.9-
2026-09-05 11:18 pm-------29.90- 82.6- 79.3- 5.9-
2026-09-05 11:12 pm-------29.90- 82.8- 79.5- 5.9-
2026-09-05 11:06 pm-------29.90- 82.9- 79.7- 5.9-
2026-09-05 11:00 pmSSW 7.0 8.9----29.90+0.05 82.9- 79.7- 5.9-
2026-09-05 10:54 pm S 6.0 8.0----29.91- 82.9- 79.5- 5.9-
2026-09-05 10:48 pm S 6.0 7.0----29.91- 82.9- 79.5- 5.9-
2026-09-05 10:42 pm S 5.1 7.0----29.91- 82.9- 79.3- 5.9-
2026-09-05 10:36 pm S 5.1 7.0----29.91- 82.9- 79.3- 5.9-
2026-09-05 10:30 pm S 5.1 8.0----29.90- 82.8- 79.2- 5.9-
2026-09-05 10:24 pm S 5.1 7.0----29.90- 82.9- 79.2- 5.9-
2026-09-05 10:18 pm S 6.0 8.0----29.90----- 5.9-
2026-09-05 10:12 pm S 6.0 8.0----29.90----- 5.9-
2026-09-05 10:06 pm S 7.0 8.9----29.90----- 5.9-
2026-09-05 10:00 pm S 6.0 8.0----29.90+0.04 82.9- 78.4- 5.9-
2026-09-05 09:54 pm S 5.1 8.9----29.90- 83.1- 78.3- 5.9-
2026-09-05 09:48 pm S 6.0 8.0----29.89----- 5.9-
2026-09-05 09:42 pm S 6.0 8.0----29.89----- 5.9-
2026-09-05 09:36 pm S 5.1 7.0----29.88----- 5.9-
2026-09-05 09:30 pm S 5.1 8.0----29.88- 83.5- 77.5- 5.9-
2026-09-05 09:24 pm S 6.0 8.9----29.88- 83.7- 77.5- 5.9-
2026-09-05 09:18 pmSSE 6.0 8.0----29.87----- 5.9-
2026-09-05 09:12 pm S 5.1 7.0----29.88----- 5.9-
2026-09-05 09:06 pm SE 4.1 5.1----29.87----- 5.9-
2026-09-05 09:00 pmSSE 4.1 6.0----29.88+0.00 83.8- 76.6- 5.9-
2026-09-05 08:54 pmSSE 4.1 6.0----29.87- 83.8- 76.5- 5.9-
2026-09-05 08:48 pm S 4.1 6.0----29.87- 84.0- 76.3- 5.9-
2026-09-05 08:42 pm S 2.9 5.1----29.87- 84.2- 76.6- 5.9-
2026-09-05 08:36 pmSSE 2.9 5.1----29.87- 84.2- 76.1- 5.9-
2026-09-05 08:30 pm-------29.86- 84.4- 76.1- 5.9-
2026-09-05 08:24 pm-------29.86- 84.6- 76.1- 5.9-
2026-09-05 08:18 pmSSE 2.9 5.1----29.86----- 5.9-
2026-09-05 08:12 pm S 4.1 5.1----29.85----- 5.9-
2026-09-05 08:06 pm S 2.9 5.1----29.85----- 5.9-
2026-09-05 08:00 pmSSE 2.9 5.1----29.85-0.02 84.9- 76.5- 5.9-
2026-09-05 07:54 pmSSE 4.1 5.1----29.85- 84.9- 76.6- 5.9-
2026-09-05 07:48 pmSSE 4.1 6.0----29.85----- 5.9-
2026-09-05 07:42 pm S 4.1 6.0----29.85----- 5.9-
2026-09-05 07:36 pm S 4.1 7.0----29.85----- 5.9-
2026-09-05 07:30 pmSSE 5.1 7.0----29.86- 85.3- 76.1- 5.9-
2026-09-05 07:24 pmSSE 5.1 7.0----29.86- 85.3- 76.5- 5.9-
2026-09-05 07:18 pmSSE 4.1 6.0----29.85----- 5.9-
2026-09-05 07:12 pm S 4.1 8.0----29.85----- 5.9-
2026-09-05 07:06 pm S 6.0 8.0----29.85----- 5.9-
2026-09-05 07:00 pm S 6.0 8.9----29.86-0.02 85.3- 77.2- 5.9-
2026-09-05 06:54 pm S 7.0 8.9----29.86- 85.5- 77.4- 5.9-
2026-09-05 06:48 pm S 7.0 8.9----29.86- 86.0- 77.7- 5.9-
2026-09-05 06:42 pm S 6.0 8.9----29.87- 86.2- 77.7- 5.9-
2026-09-05 06:36 pm S 6.0 8.0----29.87- 86.5- 77.9- 5.9-
2026-09-05 06:30 pm S 5.1 7.0----29.87- 86.4- 77.5- 5.9-
2026-09-05 06:24 pm S 5.1 7.0----29.87- 86.4- 77.4- 5.9-
2026-09-05 06:18 pm S 5.1 6.0----29.87----- 5.9-
2026-09-05 06:12 pmSSE 6.0 8.0----29.87----- 5.9-
2026-09-05 06:06 pm S 4.1 6.0----29.87----- 5.9-
2026-09-05 06:00 pm S 4.1 5.1----29.87-0.03 87.1- 77.7- 5.9-
2026-09-05 05:54 pm S 5.1 7.0----29.87- 86.7- 77.2- 5.9-
2026-09-05 05:48 pmSSE 5.1 6.0----29.87- 86.7- 77.4- 5.9-
2026-09-05 05:42 pm S 4.1 5.1----29.87- 87.1- 77.4- 5.9-
2026-09-05 05:36 pm S 4.1 6.0----29.88- 87.3- 77.9- 5.9-
2026-09-05 05:30 pm S 5.1 6.0----29.88- 86.9- 77.7- 5.9-
2026-09-05 05:24 pm S 6.0 7.0----29.88- 86.9- 77.7- 5.9-
2026-09-05 05:18 pm S 5.1 6.0----29.88----- 5.9-
2026-09-05 05:12 pm S 4.1 7.0----29.88----- 5.9-
2026-09-05 05:06 pmSSE 5.1 6.0----29.88----- 5.9-
2026-09-05 05:00 pm S 4.1 7.0----29.88- 86.7- 77.7- 5.9-
2026-09-05 04:54 pm S 5.1 8.0----29.88- 86.5- 77.2- 5.9-
2026-09-05 04:48 pm S 5.1 8.0----29.88- 86.7- 77.2- 5.9-
2026-09-05 04:42 pm S 7.0 8.0----29.88- 86.7- 77.2- 5.9-
2026-09-05 04:36 pm S 7.0 9.9----29.88- 86.7- 77.0- 5.9-
2026-09-05 04:30 pm S 8.0 9.9----29.87- 87.1- 77.7- 5.9-
2026-09-05 04:24 pm S 8.9 9.9----29.87- 87.1- 77.0- 5.9-
2026-09-05 04:18 pmSSW 6.0 8.0----29.87----- 5.9-
2026-09-05 04:12 pm SW 5.1 6.0----29.87----- 5.9-
2026-09-05 04:06 pmSSW 5.1 6.0----29.88----- 5.9-
2026-09-05 04:00 pm SW 5.1 8.0----29.88-0.06 90.0- 75.9- 5.9-
2026-09-05 03:54 pm SW 4.1 7.0----29.88- 90.3- 76.1- 5.9-
2026-09-05 03:48 pm SW 5.1 8.0----29.88- 90.1- 75.9- 5.9-
2026-09-05 03:42 pm- 0.0 4.1----29.88- 90.0- 75.2- 5.9-
2026-09-05 03:36 pm W 1.0 4.1----29.88- 89.6- 75.4- 5.9-
2026-09-05 03:30 pm- 0.0 2.9----29.88- 90.7- 76.8- 5.9-
2026-09-05 03:24 pmWSW 2.9 7.0----29.88- 90.0- 75.6- 5.9-
2026-09-05 03:18 pmSSW 4.1 6.0----29.88----- 5.9-
2026-09-05 03:12 pmSSW 6.0 7.0----29.90----- 5.9-
2026-09-05 03:06 pmSSW 5.1 8.0----29.90----- 5.9-
2026-09-05 03:00 pm SW 1.9 5.1----29.90-0.06 90.5- 77.0- 5.9-
2026-09-05 02:54 pm SW 2.9 7.0----29.89- 90.5- 76.6- 5.9-
2026-09-05 02:48 pm SW 4.1 8.9----29.89- 89.6- 76.6- 5.9-
2026-09-05 02:42 pm SW 5.1 8.0----29.89- 89.2- 77.0- 5.9-
2026-09-05 02:36 pmWSW 1.9 7.0----29.89- 89.1- 77.4- 5.9-
2026-09-05 02:30 pmSSW 2.9 5.1----29.90- 87.8- 76.1- 5.9-
2026-09-05 02:24 pm- 0.0 6.0----29.90- 88.3- 77.4- 5.9-
2026-09-05 02:18 pmSSW 4.1 7.0----29.91----- 5.9-
2026-09-05 02:12 pmSSW 6.0 8.0----29.91----- 5.9-
2026-09-05 02:06 pm S 5.1 7.0----29.91----- 5.9-
2026-09-05 02:00 pmSSW 4.1 6.0------ 85.5- 77.4- 5.9-
2026-09-05 01:54 pmSSW 5.1 8.0------ 85.5- 77.9- 5.9-
2026-09-05 01:48 pm SW 4.1 7.0----29.91- 85.5- 77.5- 5.9-
2026-09-05 01:42 pm SW 4.1 5.1----29.92- 85.1- 77.2- 5.9-
2026-09-05 01:36 pmSSW 5.1 6.0----29.92- 84.9- 76.3- 5.9-
2026-09-05 01:30 pmSSW 6.0 8.0----29.92- 84.7- 75.9- 5.9-
2026-09-05 01:24 pm SW 5.1 8.0----29.93- 86.7- 77.2- 5.9-
2026-09-05 01:18 pmWSW 1.9 5.1----29.93----- 5.9-
2026-09-05 01:12 pm W 1.9 6.0----29.93----- 5.9-
2026-09-05 01:06 pm N 1.9 5.1----29.93----- 5.9-
2026-09-05 01:00 pm N 2.9 7.0----29.93-0.04 88.3- 77.0- 5.9-
2026-09-05 12:54 pm SW 2.9 5.1----29.94- 88.0- 76.3- 5.9-